Orbital Elements at Epoch 2459000.5 (2020-May-31.0) TDB
Reference: JPL 23 (heliocentric ecliptic J2000)
Element | Value | Uncertainty (1-sigma) | Units |
e | .1035437351154391 | 4.3995e-08 | |
a | 2.211215521984061 | 2.8854e-08 | au |
q | 1.982258007692596 | 9.1886e-08 | au |
i | 4.707855620136002 | 9.4496e-06 | deg |
node | 342.8091324823321 | 5.4903e-05 | deg |
peri | 266.3450838936484 | 7.8023e-05 | deg |
M | 250.9124259867161 | 5.4319e-05 | deg |
tp | 2459364.429969619412 (2021-May-29.92996962) | 0.0001808 | TDB |
period | 1201.005616341182 3.29 | 2.3508e-05 6.436e-08 | d yr |
n | .2997488064183466 | 5.867e-09 | deg/d |
Q | 2.440173036275526 | 3.1841e-08 | au |
|
| | Orbit Determination Parameters
Additional Information
|